IBE001 EDDL-EDDP

Flight info

Callsign IBE001
Flight time N/A
Altitude 23000
Route NUDGO6T/23L NUDGO Z858 BERDI T958 KOJEC KOJEC1V
Aircraft A20N/M-SDE2E3FGHIRWXY/LB1

Departure

Time 2026-05-04 20:34
Airport Düsseldorf Airport (EDDL)

Arrival

Time N/A
Airport Leipzig/Halle Airport (EDDP)
Time Latitude Longitude Altitude Speed Heading
2026-05-04 20:30 51.29080 6.78023 145 ft 0 kts 49°
2026-05-04 20:31 51.29110 6.78080 145 ft 27 kts 52°
2026-05-04 20:31 51.29204 6.78275 145 ft 20 kts 54°
2026-05-04 20:31 51.29231 6.78332 145 ft 0 kts 51°
2026-05-04 20:32 51.29280 6.78441 146 ft 20 kts 53°
2026-05-04 20:32 51.29351 6.78558 146 ft 16 kts 29°
2026-05-04 20:32 51.29449 6.78571 148 ft 0 kts 355°
2026-05-04 20:33 51.29537 6.78498 150 ft 41 kts 303°
2026-05-04 20:33 51.29431 6.78226 146 ft 20 kts 199°
2026-05-04 20:33 51.29326 6.78064 148 ft 34 kts 232°
2026-05-04 20:33 51.28989 6.77354 139 ft 125 kts 232°
2026-05-04 20:34 51.28361 6.76004 496 ft 163 kts 233°
2026-05-04 20:34 51.27702 6.74396 1292 ft 184 kts 237°
2026-05-04 20:34 51.26974 6.72567 2125 ft 199 kts 234°
2026-05-04 20:34 51.26190 6.70806 3339 ft 199 kts 232°
2026-05-04 20:35 51.25291 6.68949 4178 ft 227 kts 230°
2026-05-04 20:35 51.24223 6.66859 4652 ft 255 kts 229°
2026-05-04 20:35 51.23005 6.64765 4870 ft 259 kts 216°
2026-05-04 20:35 51.21360 6.63636 4976 ft 260 kts 188°
2026-05-04 20:36 51.19562 6.63710 5004 ft 261 kts 175°
2026-05-04 20:36 51.17754 6.64023 5003 ft 260 kts 174°
2026-05-04 20:36 51.15964 6.64396 4996 ft 260 kts 167°
2026-05-04 20:36 51.14358 6.65695 4999 ft 263 kts 140°
2026-05-04 20:37 51.13304 6.68072 5000 ft 268 kts 112°
2026-05-04 20:37 51.13056 6.71021 5026 ft 272 kts 89°
2026-05-04 20:37 51.13177 6.73997 5021 ft 272 kts 88°
2026-05-04 20:37 51.13317 6.77014 5023 ft 273 kts 88°
2026-05-04 20:38 51.13452 6.80029 5021 ft 273 kts 88°
2026-05-04 20:38 51.13575 6.83051 5027 ft 273 kts 89°
2026-05-04 20:38 51.13691 6.86071 5020 ft 273 kts 89°
2026-05-04 20:38 51.13802 6.89065 5023 ft 273 kts 89°
2026-05-04 20:39 51.13911 6.92088 5021 ft 273 kts 89°
2026-05-04 20:39 51.14019 6.95122 5018 ft 273 kts 89°
2026-05-04 20:39 51.14127 6.98146 5016 ft 273 kts 89°
2026-05-04 20:39 51.14233 7.01171 5018 ft 274 kts 89°
2026-05-04 20:40 51.14338 7.04157 5022 ft 273 kts 89°
2026-05-04 20:40 51.14445 7.07195 5021 ft 273 kts 89°
2026-05-04 20:40 51.14491 7.08531 5018 ft 273 kts 89°
2026-05-04 20:40 51.14505 7.08928 5019 ft 273 kts 89°
2026-05-04 20:41 51.14568 7.10736 5023 ft 274 kts 89°
2026-05-04 20:41 51.14673 7.13769 5018 ft 274 kts 89°
2026-05-04 20:41 51.14778 7.16805 5020 ft 274 kts 89°
2026-05-04 20:42 51.14809 7.17726 5018 ft 274 kts 89°